Flag for Canada Weather past 2 weeks in Camrose, Alberta, Canada

Now
59 °F

Mostly cloudy.


Feels Like: 59 °F
Forecast: 53 / 69 °F
Wind: 5 mph from Southwest

Location: Edmonton International

Current Time: Sep 22, 2014 at 10:37:39 PM

Latest Report: Sep 22, 2014 at 10:00 PM


Visibility: 15 mi

Pressure: 29.73 "Hg

Humidity: 63%

Dew point: 46 °F

Location of CamroseLocation

Historic Weather in Camrose — Graph

°F

Camrose temperature yesterday

Maximum temperature yesterday: 82 °F (at 3:00 PM)
Minimum temperature yesterday: 41 °F (at 3:00 AM)
Average temperature yesterday: 61 °F

Past Weeks' High & Low Weather Summary

 TemperatureHumidityPressure
High84 °F (Sep 22, 3:00 PM)100% (Sep 8, 3:00 AM)30.67 "Hg (Sep 8, 3:00 AM)
Low23 °F (Sep 11, 4:00 AM)20% (Sep 22, 3:00 PM)29.55 "Hg (Sep 18, 6:00 AM)
Average49 °F71%30.08 "Hg
* Reported Sep 7 9:00 PM — Sep 22 9:00 PM, Camrose, Weather by CustomWeather, © 2014

Note: Actual official high and low records may vary slightly from our data, if they occured in-between our weather recording intervals... More about our weather records

Advertising

Camrose weather history for previous 24 hours

 ConditionsComfort  
Time TempWeatherWind HumidityBarometerVisibility
9:00 PM
Sep 22
59 °FPartly cloudy.7 mph59%29.74 "Hg15 mi
8:00 PM63 °FPartly sunny.9 mph49%29.74 "Hg12 mi
7:00 PM73 °FPartly sunny.No wind36%29.74 "Hg12 mi
6:00 PM81 °FPartly sunny.5 mph26%29.74 "Hg12 mi
5:00 PM82 °FPartly sunny.3 mph23%29.73 "Hg12 mi
4:00 PM84 °FPartly sunny.8 mph22%29.72 "Hg15 mi
3:00 PM84 °FPartly sunny.6 mph20%29.74 "Hg15 mi
2:00 PM82 °FPartly sunny.7 mph25%29.75 "Hg15 mi
1:00 PM81 °FPartly sunny.6 mph26%29.76 "Hg15 mi
12:00 PM79 °FScattered clouds.9 mph28%29.76 "Hg15 mi
11:00 AM72 °FPartly sunny.7 mph38%29.77 "Hg15 mi
10:00 AM70 °FPartly sunny.9 mph38%29.77 "Hg15 mi
9:00 AM59 °FPartly sunny.2 mph63%29.77 "Hg15 mi
8:00 AM50 °FPassing clouds.3 mph71%29.78 "Hg15 mi
7:00 AM45 °FClear.6 mph81%29.77 "Hg15 mi
6:00 AM39 °FClear.6 mph93%29.78 "Hg15 mi
5:00 AM41 °FClear.5 mph87%29.78 "Hg15 mi
4:00 AM41 °FClear.8 mph87%29.76 "Hg15 mi
3:00 AM45 °FClear.5 mph87%29.76 "Hg15 mi
2:00 AM48 °FClear.2 mph82%29.76 "Hg15 mi
1:00 AM54 °FClear.6 mph72%29.75 "Hg15 mi
12:00 AM57 °FClear.9 mph63%29.76 "Hg15 mi
11:00 PM
Sep 21
63 °FClear.13 mph56%29.77 "Hg15 mi
10:00 PM61 °FPassing clouds.12 mph59%29.80 "Hg15 mi
Weather by CustomWeather, © 2014

See weather overviewHow to use our weather pages